GW5292 Weather Reports


time (UTC)temp
C
wind
direction
speed
KPH
gust
KPH
rain 1hr
cm
rain 24hr
cm
rain mn
cm
humidity
%
barometer
mb
20260906174527 23 148 0.0 8.0 0.00 0.00 0.00 59 1016.2
20260906173009 23 32 3.2 6.4 0.00 0.00 0.00 63 1016.3
20260906171517 22 9 3.2 6.4 0.00 0.00 0.00 65 1016.3
20260906170021 22 194 1.6 9.7 0.00 0.00 0.00 64 1016.4
20260906164527 22 9 3.2 12.9 0.00 0.00 0.00 68 1016.4
20260906163031 22 15 4.8 8.0 0.00 0.00 0.00 66 1016.3
20260906161510 22 9 3.2 16.1 0.00 0.00 0.00 70 1016.3
20260906160030 22 23 6.4 14.5 0.00 0.00 0.00 68 1016.4
20260906154540 22 336 6.4 12.9 0.00 0.00 0.00 65 1016.4
20260906153038 22 28 6.4 9.7 0.00 0.00 0.00 73 1016.6
20260906151531 21 23 4.8 11.3 0.00 0.00 0.00 72 1016.4
20260906150020 21 9 3.2 9.7 0.00 0.00 0.00 74 1016.4
20260906144523 22 360 4.8 14.5 0.00 0.00 0.00 74 1016.3
20260906143034 21 360 4.8 9.7 0.00 0.00 0.00 76 1016.3
20260906141530 20 344 3.2 8.0 0.00 0.00 0.00 77 1016.3
20260906140042 20 331 3.2 8.0 0.00 0.00 0.00 81 1016.2
20260906134519 19 9 4.8 12.9 0.00 0.00 0.00 81 1016.1
20260906133026 19 12 3.2 12.9 0.00 0.00 0.00 83 1015.9
20260906131531 19 10 4.8 8.0 0.00 0.00 0.00 84 1015.8
20260906130041 18 348 1.6 4.8 0.00 0.00 0.00 89 1015.7
20260906124536 17 9 1.6 6.4 0.00 0.00 0.00 90 1015.7
20260906123032 16 159 0.0 3.2 0.00 0.00 0.00 96 1015.6
20260906121505 16 128 1.6 1.6 0.00 0.00 0.00 98 1015.3
20260906120005 15 128 0.0 3.2 0.00 0.00 0.00 97 1015.1
20260906114504 14 128 0.0 1.6 0.00 0.00 0.00 97 1015.1
20260906113005 13 128 0.0 0.0 0.00 0.00 0.00 97 1014.9
20260906111513 13 128 0.0 3.2 0.00 0.00 0.00 97 1014.8
20260906110012 13 128 0.0 0.0 0.00 0.00 0.00 96 1014.7
20260906104512 13 128 0.0 0.0 0.00 0.00 0.00 96 1014.7
20260906103009 13 128 0.0 0.0 0.00 0.00 0.00 96 1014.4
20260906101510 13 128 0.0 0.0 0.00 0.00 0.00 96 1014.2
20260906100010 13 128 0.0 0.0 0.00 0.00 0.00 96 1014.2
20260906094518 13 128 0.0 0.0 0.00 0.00 0.00 96 1014.0
20260906093011 13 128 0.0 0.0 0.00 0.00 0.00 96 1013.8
20260906091523 13 128 0.0 0.0 0.00 0.00 0.00 95 1013.6
20260906090013 13 128 0.0 0.0 0.00 0.00 0.00 95 1013.3
20260906084520 13 128 0.0 0.0 0.00 0.00 0.00 95 1013.2
20260906083021 13 128 0.0 0.0 0.00 0.00 0.00 95 1013.2
20260906081530 13 128 0.0 0.0 0.00 0.00 0.00 95 1013.1
20260906080013 13 128 0.0 0.0 0.00 0.00 0.00 95 1013.1
20260906074513 14 128 0.0 3.2 0.00 0.00 0.00 95 1013.1
20260906073015 14 128 0.0 0.0 0.00 0.00 0.00 95 1012.9
20260906071518 14 128 0.0 0.0 0.00 0.00 0.00 95 1012.9
20260906070018 14 128 0.0 0.0 0.00 0.00 0.00 95 1013.0
20260906064515 14 128 0.0 0.0 0.00 0.00 0.00 95 1013.0
20260906063021 15 128 0.0 0.0 0.00 0.00 0.00 94 1013.0
20260906061519 15 128 0.0 0.0 0.00 0.00 0.00 94 1013.1
20260906060018 15 128 0.0 0.0 0.00 0.00 0.00 94 1013.2
20260906054518 15 128 0.0 0.0 0.00 0.00 0.00 94 1013.4
20260906053026 15 128 0.0 1.6 0.00 0.00 0.00 94 1013.4
20260906051511 15 128 0.0 0.0 0.00 0.00 0.00 94 1013.4
20260906050044 15 128 0.0 0.0 0.00 0.00 0.00 94 1013.3
20260906044523 15 128 0.0 0.0 0.00 0.00 0.00 94 1013.5
20260906043003 15 128 0.0 0.0 0.00 0.00 0.00 93 1013.6
20260906041509 15 128 0.0 0.0 0.00 0.00 0.00 93 1013.4
20260906040014 16 128 0.0 0.0 0.00 0.00 0.00 93 1013.3
20260906034531 16 128 0.0 3.2 0.00 0.00 0.00 93 1013.4
20260906033028 16 128 0.0 0.0 0.00 0.00 0.00 93 1013.2
20260906031504 16 128 0.0 3.2 0.00 0.00 0.00 92 1013.2
20260906030011 16 128 0.0 0.0 0.00 0.00 0.00 92 1013.2
20260906024515 16 128 0.0 0.0 0.00 0.00 0.00 92 1013.0
20260906023027 16 128 0.0 0.0 0.00 0.00 0.00 91 1012.9
20260906021530 17 128 0.0 0.0 0.00 0.00 0.00 90 1013.0
20260906020008 17 128 0.0 0.0 0.00 0.00 0.00 89 1012.9
20260906014512 17 128 0.0 0.0 0.00 0.00 0.00 88 1012.9
20260906013021 17 128 0.0 0.0 0.00 0.00 0.00 87 1012.9
20260906011526 18 128 0.0 3.2 0.00 0.00 0.00 85 1012.8
20260906010032 18 128 0.0 0.0 0.00 0.00 0.00 82 1012.6
20260906004512 19 128 0.0 0.0 0.00 0.00 0.00 81 1012.2
20260906003018 20 128 0.0 0.0 0.00 0.00 0.00 79 1012.1
20260906001525 20 128 0.0 0.0 0.00 0.00 0.00 79 1012.0
20260906000031 20 128 0.0 3.2 0.00 0.00 0.00 76 1011.9
20260905234533 21 128 0.0 3.2 0.00 0.00 0.00 74 1011.7
20260905233021 22 96 0.0 0.0 0.00 0.00 0.00 69 1011.4
20260905231518 23 96 0.0 3.2 0.00 0.00 0.00 65 1011.3
20260905230026 23 98 0.0 3.2 0.00 0.00 0.00 64 1011.3
20260905224527 23 16 0.0 3.2 0.00 0.00 0.00 62 1011.3
20260905223035 24 36 1.6 3.2 0.00 0.00 0.00 59 1011.1
20260905221514 24 331 3.2 6.4 0.00 0.00 0.00 59 1011.2
20260905220024 25 21 1.6 8.0 0.00 0.00 0.00 56 1011.1
20260905214526 25 350 1.6 6.4 0.00 0.00 0.00 56 1011.0
20260905213005 25 346 4.8 12.9 0.00 0.00 0.00 54 1010.9
20260905211512 26 321 3.2 4.8 0.00 0.00 0.00 54 1010.8
20260905210019 25 28 1.6 6.4 0.00 0.00 0.00 54 1010.9
20260905204524 25 130 0.0 4.8 0.00 0.00 0.00 57 1010.9
20260905203029 25 28 0.0 9.7 0.00 0.00 0.00 54 1010.9
20260905201510 25 20 3.2 9.7 0.00 0.00 0.00 53 1011.1
20260905200028 25 15 4.8 6.4 0.00 0.00 0.00 55 1011.2
20260905194524 26 360 4.8 8.0 0.00 0.00 0.00 52 1011.1
20260905193030 25 38 3.2 12.9 0.00 0.00 0.00 51 1011.2
20260905191529 25 20 3.2 11.3 0.00 0.00 0.00 54 1011.2
20260905190014 26 352 3.2 8.0 0.00 0.00 0.00 54 1011.3
20260905184523 25 339 4.8 12.9 0.00 0.00 0.00 57 1011.5
20260905183029 25 296 3.2 8.0 0.00 0.00 0.00 57 1011.5
20260905181530 25 276 1.6 8.0 0.00 0.00 0.00 58 1011.6
20260905180012 25 238 3.2 9.7 0.00 0.00 0.00 59 1011.6